FW4708 Weather Reports


Display with metric or nautical units.
time (UTC)temp
F
wind
direction
speed
MPH
gust
MPH
rain 1hr
in
rain 24hr
in
rain mn
in
humidity
%
barometer
mb
20260903171505 93 241 2.0 7.0 0.00 1.94 0.01 55 1014.5
20260903171322 94 231 3.0 7.0 0.00 1.94 0.01 55 1014.5
20260903170825 93 53 1.0 4.0 0.00 1.94 0.01 58 1014.5
20260903170322 92 12 0.0 6.0 0.00 1.94 0.01 61 1014.7
20260903170042 91 240 1.0 6.0 0.00 1.94 0.01 61 1014.8
20260903165830 92 219 2.0 8.0 0.00 1.94 0.01 60 1014.9
20260903165350 93 231 3.0 8.0 0.00 1.94 0.01 57 1014.9
20260903164811 94 71 2.0 5.0 0.00 1.94 0.01 54 1015.0
20260903164512 94 234 0.0 2.0 0.00 1.94 0.01 54 1014.9
20260903164335 95 248 0.0 6.0 0.00 1.94 0.01 55 1015.1
20260903163821 94 223 1.0 6.0 0.00 1.94 0.01 55 1015.1
20260903163325 94 30 2.0 5.0 0.00 1.94 0.01 58 1015.0
20260903163039 93 52 2.0 5.0 0.00 1.94 0.01 58 1015.1
20260903162831 94 94 2.0 3.0 0.00 1.94 0.01 56 1015.1
20260903162336 93 238 0.0 7.0 0.00 1.94 0.01 59 1015.1
20260903161810 92 89 3.0 7.0 0.00 1.94 0.01 58 1015.2
20260903161536 92 65 1.0 4.0 0.00 1.94 0.01 58 1015.2
20260903161344 92 7 1.0 4.0 0.00 1.94 0.01 64 1015.3
20260903160829 91 304 0.0 2.0 0.00 1.94 0.01 61 1015.2
20260903160314 91 224 0.0 2.0 0.00 1.94 0.01 61 1015.4
20260903160007 90 236 0.0 2.0 0.00 1.94 0.01 60 1015.4
20260903155817 91 236 0.0 2.0 0.00 1.94 0.01 62 1015.3
20260903155323 90 257 0.0 2.0 0.00 1.94 0.01 61 1015.5
20260903154816 90 262 0.0 3.0 0.00 1.94 0.01 61 1015.5
20260903154558 90 249 0.0 3.0 0.00 1.94 0.01 61 1015.6
20260903154320 91 243 1.0 4.0 0.00 1.94 0.01 59 1015.6
20260903153816 91 25 1.0 4.0 0.00 1.94 0.01 61 1015.5
20260903153320 91 227 1.0 7.0 0.00 1.94 0.01 60 1015.5
20260903153040 91 233 1.0 7.0 0.00 1.94 0.01 60 1015.6
20260903152833 92 245 3.0 7.0 0.00 1.94 0.01 59 1015.5
20260903152337 92 72 0.0 5.0 0.00 1.94 0.01 57 1015.4
20260903151819 93 32 2.0 7.0 0.00 1.94 0.01 59 1015.4
20260903151518 92 65 1.0 7.0 0.00 1.94 0.01 56 1015.4
20260903151323 93 23 1.0 7.0 0.00 1.94 0.01 57 1015.4
20260903150826 92 360 0.0 4.0 0.00 1.94 0.01 60 1015.3
20260903150310 91 205 1.0 6.0 0.00 1.94 0.01 60 1015.4
20260903150015 91 90 3.0 7.0 0.00 1.94 0.01 59 1015.4
20260903145815 91 111 3.0 7.0 0.00 1.94 0.01 59 1015.4
20260903145319 91 79 4.0 7.0 0.00 1.94 0.01 59 1015.3
20260903144844 91 73 0.0 4.0 0.00 1.94 0.01 64 1015.4
20260903144544 90 252 1.0 4.0 0.00 1.94 0.01 62 1015.4
20260903144316 90 61 1.0 4.0 0.00 1.94 0.01 65 1015.4
20260903143822 90 241 1.0 4.0 0.00 1.94 0.01 65 1015.3
20260903143326 90 217 1.0 3.0 0.00 1.94 0.01 66 1015.3
20260903143035 90 214 1.0 3.0 0.00 1.94 0.01 66 1015.3
20260903142829 90 246 1.0 5.0 0.00 1.94 0.01 67 1015.3
20260903142334 90 48 0.0 5.0 0.00 1.94 0.01 68 1015.1
20260903141838 89 134 1.0 5.0 0.00 1.94 0.01 65 1015.3
20260903141505 89 266 0.0 4.0 0.00 1.94 0.01 66 1015.3
20260903141321 90 212 1.0 4.0 0.00 1.94 0.01 66 1015.2
20260903140823 89 210 0.0 2.0 0.00 1.94 0.01 67 1015.2
20260903140321 89 223 0.0 4.0 0.00 1.94 0.01 69 1015.3
20260903140103 89 76 0.0 4.0 0.00 1.94 0.01 71 1015.3
20260903135825 89 162 2.0 4.0 0.00 1.94 0.01 69 1015.4
20260903135331 89 85 2.0 4.0 0.00 1.94 0.01 69 1015.3
20260903134813 90 258 0.0 2.0 0.00 1.94 0.01 68 1015.1
20260903134521 89 96 0.0 2.0 0.00 1.94 0.01 69 1015.1
20260903134318 89 92 1.0 4.0 0.00 1.94 0.01 70 1015.1
20260903133820 89 218 0.0 4.0 0.00 1.94 0.01 72 1015.1
20260903133319 89 99 0.0 4.0 0.00 1.94 0.01 73 1015.1
20260903133050 88 30 0.0 4.0 0.00 1.94 0.01 73 1015.1
20260903132816 88 113 1.0 4.0 0.00 1.94 0.01 73 1015.0
20260903132315 88 84 3.0 4.0 0.00 1.94 0.01 73 1015.0
20260903131821 88 117 2.0 5.0 0.00 1.94 0.01 73 1014.9
20260903131520 88 89 1.0 5.0 0.00 1.94 0.01 72 1014.9
20260903131345 88 112 2.0 5.0 0.00 1.94 0.01 73 1015.0
20260903130828 88 83 1.0 2.0 0.00 1.94 0.01 73 1014.9
20260903130312 88 39 0.0 2.0 0.00 1.94 0.01 74 1014.9
20260903125816 88 11 0.0 2.0 0.00 1.94 0.01 75 1015.1
20260903125340 87 54 0.0 2.0 0.00 1.94 0.01 76 1015.1
20260903124826 87 54 0.0 2.0 0.00 1.94 0.01 77 1015.1
20260903124528 86 77 0.0 2.0 0.00 1.94 0.01 77 1015.1
20260903124330 86 74 1.0 2.0 0.00 1.94 0.01 76 1015.2
20260903123830 86 72 0.0 2.0 0.00 1.94 0.01 77 1015.2
20260903123335 86 75 0.0 2.0 0.00 1.94 0.01 78 1015.1
20260903123030 84 93 0.0 0.0 0.00 1.94 0.01 82 1015.1
20260903122839 84 92 0.0 0.0 0.00 1.94 0.01 83 1015.1
20260903122322 83 92 0.0 0.0 0.00 1.94 0.01 87 1015.0
20260903121820 83 92 0.0 0.0 0.00 1.94 0.01 89 1015.0
20260903121558 82 92 0.0 0.0 0.00 1.94 0.01 89 1015.0
20260903121324 82 92 0.0 0.0 0.00 1.94 0.01 90 1014.9
20260903120856 81 92 0.0 0.0 0.00 1.94 0.01 90 1014.8
20260903120339 80 92 0.0 0.0 0.00 1.94 0.01 90 1015.0
20260903120015 79 92 0.0 0.0 0.00 1.94 0.01 89 1014.9
20260903115821 79 92 0.0 0.0 0.00 1.94 0.01 89 1014.9
20260903115320 79 92 0.0 0.0 0.00 1.94 0.01 90 1014.8
20260903114824 78 92 0.0 0.0 0.00 1.94 0.01 89 1014.6
20260903114549 78 93 0.0 0.0 0.00 1.94 0.01 89 1014.5
20260903114323 79 92 0.0 0.0 0.00 1.94 0.01 90 1014.5
20260903113821 78 93 0.0 0.0 0.00 1.94 0.01 90 1014.5
20260903113044 77 93 0.0 0.0 0.00 1.94 0.01 90 1014.4
20260903112839 77 93 0.0 0.0 0.00 1.94 0.01 90 1014.4
20260903112322 77 93 0.0 0.0 0.00 1.94 0.01 90 1014.4
20260903111819 77 93 0.0 0.0 0.00 1.94 0.01 89 1014.2
20260903111503 76 92 0.0 0.0 0.00 1.94 0.01 90 1014.3
20260903111322 77 93 0.0 0.0 0.00 1.94 0.01 90 1014.3
20260903110826 77 93 0.0 0.0 0.00 1.94 0.01 89 1014.2
20260903110310 77 93 0.0 0.0 0.00 1.94 0.01 89 1014.0
20260903110104 76 93 0.0 0.0 0.00 1.94 0.01 89 1013.9
20260903105814 77 93 0.0 0.0 0.00 1.94 0.01 90 1014.0
20260903105319 77 93 0.0 0.0 0.00 1.94 0.01 89 1014.0
20260903104824 77 93 0.0 0.0 0.00 1.94 0.01 89 1013.8
20260903104520 76 93 0.0 0.0 0.00 1.94 0.01 89 1013.6
20260903104329 77 93 0.0 0.0 0.00 1.94 0.01 89 1013.6
20260903103812 77 93 0.0 0.0 0.00 1.94 0.01 89 1013.6
20260903103315 77 93 0.0 0.0 0.00 1.94 0.01 89 1013.5
20260903103015 76 93 0.0 0.0 0.00 1.94 0.01 89 1013.5
20260903102814 77 93 0.0 0.0 0.00 1.94 0.01 89 1013.5
20260903102318 77 93 0.0 0.0 0.00 1.94 0.01 89 1013.4
20260903101815 77 93 0.0 0.0 0.00 1.94 0.01 89 1013.3
20260903101604 77 93 0.0 0.0 0.00 1.94 0.01 89 1013.3
20260903101320 77 93 0.0 0.0 0.00 1.94 0.01 89 1013.4
20260903100817 77 93 0.0 0.0 0.00 1.94 0.01 89 1013.4
20260903100322 77 93 0.0 0.0 0.00 1.94 0.01 89 1013.3
20260903100113 77 93 0.0 0.0 0.00 1.94 0.01 89 1013.3
20260903095814 77 92 0.0 0.0 0.00 1.94 0.01 89 1013.2
20260903095318 77 93 0.0 0.0 0.00 1.94 0.01 89 1013.2
20260903094823 77 92 0.0 0.0 0.00 1.94 0.01 89 1013.3
20260903094519 77 93 0.0 0.0 0.00 1.94 0.01 89 1013.2
20260903094326 77 93 0.0 0.0 0.00 1.94 0.01 89 1013.3
20260903093830 77 93 0.0 0.0 0.00 1.94 0.01 89 1013.3
20260903093314 77 93 0.0 0.0 0.00 1.94 0.01 89 1013.2
20260903093016 76 93 0.0 0.0 0.00 1.94 0.01 89 1013.3
20260903092819 77 93 0.0 0.0 0.00 1.94 0.01 89 1013.2
20260903092322 77 93 0.0 0.0 0.00 1.94 0.01 89 1013.2
20260903091815 77 92 0.0 0.0 0.00 1.94 0.01 89 1013.1
20260903091606 76 93 0.0 0.0 0.00 1.94 0.01 89 1013.1
20260903091319 77 92 0.0 0.0 0.00 1.94 0.01 89 1013.1
20260903090823 77 93 0.0 0.0 0.00 1.94 0.01 89 1013.2
20260903090326 77 92 0.0 0.0 0.00 1.94 0.01 89 1013.0
20260903090045 77 92 0.0 0.0 0.00 1.94 0.01 89 1013.2
20260903085822 77 93 0.0 0.0 0.00 1.94 0.01 89 1013.1
20260903085337 77 93 0.0 0.0 0.00 1.94 0.01 89 1013.2
20260903084817 77 92 0.0 0.0 0.00 1.94 0.01 89 1013.1
20260903084530 77 93 0.0 0.0 0.00 1.94 0.01 89 1013.1
20260903084321 77 92 0.0 0.0 0.00 1.94 0.01 89 1013.2
20260903083844 77 92 0.0 0.0 0.00 1.94 0.01 89 1013.1
20260903083321 77 92 0.0 0.0 0.00 1.94 0.01 88 1013.0
20260903083047 77 92 0.0 0.0 0.00 1.94 0.01 88 1013.0
20260903082826 78 92 0.0 0.0 0.00 1.94 0.01 88 1013.1
20260903082340 78 92 0.0 0.0 0.00 1.94 0.01 89 1013.1
20260903081838 78 92 0.0 0.0 0.00 1.94 0.01 88 1013.1
20260903081524 77 93 0.0 0.0 0.00 1.94 0.01 88 1013.0
20260903081340 78 92 0.0 0.0 0.00 1.94 0.01 88 1013.0
20260903080847 78 92 0.0 0.0 0.00 1.94 0.01 88 1013.1
20260903080324 78 93 0.0 0.0 0.00 1.94 0.01 88 1013.1
20260903080029 77 93 0.0 0.0 0.00 1.94 0.01 88 1013.1
20260903075829 78 93 0.0 0.0 0.00 1.94 0.01 88 1013.1
20260903075313 78 93 0.0 0.0 0.00 1.94 0.01 88 1013.0
20260903074817 78 92 0.0 0.0 0.00 1.94 0.01 88 1013.0
20260903074513 77 93 0.0 0.0 0.00 1.94 0.01 88 1013.1
20260903074321 78 92 0.0 0.0 0.00 1.94 0.01 88 1013.0
20260903073824 78 92 0.0 0.0 0.00 1.94 0.01 88 1013.1
20260903073330 78 93 0.0 0.0 0.00 1.94 0.01 88 1013.0
20260903073020 77 92 0.0 0.0 0.00 1.94 0.01 88 1012.9
20260903072812 78 93 0.0 0.0 0.00 1.94 0.01 88 1012.9
20260903072317 78 93 0.0 0.0 0.00 1.94 0.01 88 1013.0
20260903071821 78 92 0.0 0.0 0.00 1.94 0.01 88 1013.0
20260903071514 77 93 0.0 0.0 0.00 1.94 0.01 88 1013.1
20260903071320 78 93 0.0 0.0 0.00 1.94 0.01 88 1013.1
20260903070818 78 93 0.0 1.0 0.00 1.94 0.01 88 1013.2
20260903070345 78 93 0.0 1.0 0.00 1.94 0.01 88 1013.2
20260903070025 78 92 0.0 1.0 0.00 1.94 0.01 88 1013.2
20260903065827 78 120 0.0 1.0 0.00 1.94 0.01 88 1013.2
20260903065331 78 115 0.0 1.0 0.00 1.94 0.01 88 1013.6
20260903064833 78 139 0.0 1.0 0.00 1.94 0.01 88 1013.7
20260903064501 78 68 0.0 1.0 0.00 1.94 0.01 88 1013.7
20260903064316 78 68 0.0 1.0 0.00 1.94 0.01 88 1013.8
20260903063821 78 68 0.0 0.0 0.00 1.94 0.01 88 1013.8
20260903063325 78 68 0.0 0.0 0.00 1.94 0.01 88 1013.4
20260903063049 78 68 0.0 0.0 0.00 1.94 0.01 88 1013.4
20260903062821 78 68 0.0 0.0 0.00 1.94 0.01 88 1013.3
20260903062324 78 68 0.0 0.0 0.00 1.94 0.01 88 1013.4
20260903061853 78 68 0.0 0.0 0.00 1.94 0.01 88 1013.6
20260903061528 78 68 0.0 0.0 0.00 1.94 0.01 88 1013.8
20260903061337 78 67 0.0 2.0 0.00 1.94 0.01 88 1013.9
20260903060820 78 68 0.0 2.0 0.00 1.94 0.01 88 1014.0
20260903060324 78 85 0.0 1.0 0.00 1.94 0.01 88 1014.0
20260903060024 78 84 0.0 1.0 0.00 1.94 0.01 88 1014.0
20260903055829 78 84 0.0 1.0 0.00 1.94 0.01 88 1014.1
20260903055315 78 84 0.0 1.0 0.00 1.94 0.01 88 1014.2
20260903054816 78 84 0.0 0.0 0.00 1.94 0.01 87 1014.3
20260903054523 78 84 0.0 0.0 0.00 1.94 0.01 87 1014.3
20260903054320 78 84 0.0 0.0 0.00 1.94 0.01 87 1014.4
20260903053843 78 84 0.0 1.0 0.00 1.94 0.01 87 1014.3
20260903053325 78 85 0.0 1.0 0.00 1.94 0.01 87 1014.7
20260903053101 78 84 0.0 1.0 0.00 1.94 0.01 87 1014.8
20260903052822 78 84 0.0 0.0 0.00 1.94 0.01 87 1014.9
20260903052328 78 359 0.0 1.0 0.00 1.94 0.01 87 1014.9
20260903051851 78 359 0.0 0.0 0.00 1.94 0.01 87 1014.9
20260903051508 78 359 0.0 0.0 0.00 1.94 0.01 87 1014.9
20260903051313 79 359 0.0 0.0 0.00 1.94 0.01 87 1014.9
20260903050814 79 359 0.0 1.0 0.00 1.94 0.01 87 1014.6
20260903050318 79 359 0.0 3.0 0.00 1.94 0.01 87 1014.7
20260903050058 78 359 0.0 3.0 0.00 1.94 0.01 86 1014.7
20260903045815 79 327 0.0 3.0 0.01 1.94 0.01 86 1014.9
20260903045343 79 72 0.0 1.0 0.01 1.94 0.01 86 1015.2
20260903044825 79 70 0.0 1.0 0.01 1.94 0.01 86 1015.5
20260903044523 78 59 0.0 1.0 0.01 1.94 0.01 86 1015.4
20260903044313 79 349 0.0 2.0 0.01 1.94 0.01 86 1015.4
20260903043924 79 349 0.0 3.0 0.01 1.94 0.01 86 1015.2
20260903043342 79 324 1.0 3.0 0.01 1.94 0.01 86 1014.9
20260903043021 79 321 0.0 2.0 0.01 1.94 0.01 86 1015.0
20260903042824 79 315 0.0 2.0 0.01 1.94 0.01 86 1015.1
20260903042323 79 287 0.0 1.0 0.01 1.94 0.01 86 1015.2
20260903041816 79 359 0.0 1.0 0.01 1.94 0.01 86 1015.4
20260903041606 79 348 0.0 0.0 0.01 1.94 0.01 85 1015.6
20260903041320 79 348 0.0 0.0 0.01 1.94 0.01 85 1015.6
20260903040846 79 348 0.0 0.0 0.01 1.94 0.01 85 1015.6
20260903040329 79 348 0.0 0.0 0.01 1.94 0.01 85 1015.4
20260903040012 79 348 0.0 1.0 0.01 1.94 0.01 85 1015.4
20260903035813 79 349 0.0 1.0 0.00 1.93 1.93 85 1015.5
20260903035317 80 346 0.0 4.0 0.00 1.93 1.93 85 1015.6
20260903034821 80 347 1.0 2.0 0.00 1.93 1.93 85 1015.6
20260903034513 79 82 0.0 0.0 0.00 1.93 1.93 85 1015.5
20260903034325 80 82 0.0 0.0 0.00 1.93 1.93 85 1015.6
20260903033823 80 82 0.0 0.0 0.00 1.93 1.93 84 1015.5
20260903033029 79 82 0.0 0.0 0.00 1.93 1.93 84 1015.5
20260903032320 80 82 0.0 0.0 0.00 1.93 1.93 84 1015.4
20260903031832 80 82 0.0 0.0 0.00 1.93 1.93 83 1015.5
20260903031529 79 82 0.0 0.0 0.00 1.93 1.93 83 1015.6
20260903031332 80 82 0.0 0.0 0.00 1.93 1.93 83 1015.5
20260903030836 80 82 0.0 1.0 0.00 1.93 1.93 82 1015.5
20260903030322 80 82 0.0 2.0 0.00 1.93 1.93 82 1015.5
20260903030030 80 82 0.0 2.0 0.00 1.93 1.93 82 1015.6
20260903025825 80 82 1.0 2.0 0.00 1.93 1.93 82 1015.5
20260903025329 80 82 1.0 2.0 0.00 1.93 1.93 82 1015.6
20260903024834 80 103 0.0 2.0 0.00 1.93 1.93 82 1015.5
20260903024510 80 108 0.0 3.0 0.00 1.93 1.93 82 1015.4
20260903024317 80 117 0.0 3.0 0.00 1.93 1.93 82 1015.5
20260903023822 80 63 1.0 4.0 0.00 1.93 1.93 82 1015.3
20260903023327 81 94 1.0 4.0 0.00 1.93 1.93 83 1015.3
20260903023007 80 89 0.0 7.0 0.00 1.93 1.93 82 1015.1
20260903022830 81 131 1.0 7.0 0.00 1.93 1.93 82 1015.0
20260903022315 81 67 3.0 7.0 0.00 1.93 1.93 82 1014.9
20260903021819 80 77 2.0 6.0 0.00 1.93 1.93 83 1014.9
20260903021507 80 63 0.0 4.0 0.00 1.93 1.93 83 1014.8
20260903021323 80 65 2.0 4.0 0.00 1.93 1.93 83 1014.8
20260903020821 80 114 1.0 2.0 0.00 1.93 1.93 83 1014.8
20260903020350 80 122 1.0 3.0 0.00 1.93 1.93 82 1014.9
20260903020032 80 88 0.0 4.0 0.00 1.93 1.93 82 1015.1
20260903015833 81 72 1.0 4.0 0.00 1.93 1.93 81 1015.1
20260903015337 81 120 1.0 4.0 0.00 1.93 1.93 80 1014.9
20260903014821 82 94 1.0 5.0 0.00 1.93 1.93 79 1014.7
20260903014515 81 107 2.0 5.0 0.00 1.93 1.93 79 1014.6
20260903014327 82 90 3.0 5.0 0.00 1.93 1.93 78 1014.7
20260903013831 82 103 1.0 5.0 0.00 1.93 1.93 76 1014.7
20260903013315 82 130 2.0 4.0 0.00 1.93 1.93 74 1014.8
20260903013013 82 92 1.0 5.0 0.00 1.93 1.93 73 1014.7
20260903012819 83 101 1.0 5.0 0.00 1.93 1.93 72 1014.7
20260903012323 83 99 3.0 8.0 0.00 1.93 1.93 72 1014.7
20260903011827 83 96 2.0 8.0 0.00 1.93 1.93 74 1014.8
20260903011601 83 84 4.0 8.0 0.00 1.93 1.93 74 1014.7
20260903011325 83 99 3.0 6.0 0.00 1.93 1.93 80 1014.7
20260903010823 83 115 0.0 0.0 0.00 1.93 1.93 80 1014.6
20260903010330 83 115 0.0 0.0 0.00 1.93 1.93 79 1014.5
20260903010030 83 115 0.0 0.0 0.00 1.93 1.93 79 1014.5
20260903005834 83 115 0.0 0.0 0.00 1.93 1.93 79 1014.5
20260903005334 83 115 0.0 0.0 0.00 1.93 1.93 79 1014.4
20260903004838 84 115 0.0 0.0 0.00 1.93 1.93 78 1014.4
20260903004511 83 115 0.0 0.0 0.00 1.93 1.93 78 1014.5
20260903004322 84 115 0.0 0.0 0.00 1.93 1.93 78 1014.4
20260903003826 84 115 0.0 0.0 0.00 1.93 1.93 78 1014.2
20260903003324 84 115 0.0 0.0 0.00 1.93 1.93 78 1014.0
20260903003046 84 115 0.0 1.0 0.00 1.93 1.93 77 1014.0
20260903002850 84 115 0.0 1.0 0.00 1.93 1.93 77 1013.9
20260903002334 84 115 0.0 2.0 0.00 1.93 1.93 77 1014.0
20260903001838 84 115 0.0 3.0 0.00 1.93 1.93 77 1013.9
20260903001504 84 56 0.0 3.0 0.00 1.93 1.93 77 1013.9
20260903001342 84 32 1.0 3.0 0.00 1.93 1.93 77 1013.9
20260903000836 84 15 0.0 2.0 0.00 1.93 1.93 77 1013.9
20260903000340 85 111 0.0 3.0 0.00 1.93 1.93 76 1013.9
20260903000039 84 110 0.0 3.0 0.00 1.93 1.93 76 1013.9
20260902235834 85 126 0.0 1.0 0.00 1.93 1.93 76 1013.9
20260902235318 85 115 0.0 3.0 0.00 1.93 1.93 76 1014.0
20260902234822 85 124 1.0 3.0 0.00 1.93 1.93 75 1014.0
20260902234504 85 94 0.0 3.0 0.00 1.93 1.93 75 1013.9
20260902234328 85 94 1.0 3.0 0.00 1.93 1.93 75 1013.8
20260902233831 85 117 1.0 3.0 0.00 1.93 1.93 75 1013.7
20260902233315 85 115 1.0 3.0 0.00 1.93 1.93 75 1013.5
20260902233008 85 64 0.0 3.0 0.00 1.93 1.93 75 1013.7
20260902232817 85 118 1.0 3.0 0.00 1.93 1.93 74 1013.7
20260902232322 86 36 1.0 6.0 0.00 1.93 1.93 74 1013.7
20260902231825 86 89 3.0 6.0 0.00 1.93 1.93 74 1013.8
20260902231556 85 129 0.0 3.0 0.00 1.93 1.93 74 1013.9
20260902231322 86 84 2.0 3.0 0.00 1.93 1.93 73 1014.0
20260902230825 86 132 1.0 3.0 0.00 1.93 1.93 74 1014.0
20260902230330 86 116 1.0 5.0 0.00 1.93 1.93 73 1013.9
20260902230016 86 109 0.0 5.0 0.00 1.93 1.93 73 1013.7
20260902225812 86 109 1.0 5.0 0.00 1.93 1.93 73 1013.7
20260902225316 86 66 1.0 5.0 0.00 1.93 1.93 72 1013.7
20260902224816 86 118 1.0 4.0 0.00 1.93 1.93 72 1013.6
20260902224517 86 118 1.0 5.0 0.00 1.93 1.93 72 1013.5
20260902224340 86 65 1.0 5.0 0.00 1.93 1.93 71 1013.4
20260902223822 87 43 1.0 5.0 0.00 1.93 1.93 71 1013.4
20260902223415 87 125 2.0 6.0 0.00 1.93 1.93 70 1013.2
20260902223010 86 103 2.0 6.0 0.00 1.93 1.93 70 1013.3
20260902222812 87 75 3.0 6.0 0.00 1.93 1.93 70 1013.4
20260902222315 87 77 2.0 5.0 0.00 1.93 1.93 71 1013.5
20260902221818 87 118 1.0 5.0 0.00 1.93 1.93 71 1013.5
20260902221509 87 108 1.0 6.0 0.00 1.93 1.93 71 1013.6
20260902221322 87 258 1.0 6.0 0.00 1.93 1.93 70 1013.5
20260902220826 87 105 2.0 6.0 0.00 1.93 1.93 70 1013.5
20260902220330 87 102 2.0 6.0 0.00 1.93 1.93 69 1013.4
20260902220013 87 127 2.0 6.0 0.00 1.93 1.93 69 1013.4
20260902215814 87 90 3.0 6.0 0.00 1.93 1.93 69 1013.4
20260902215319 87 34 1.0 4.0 0.00 1.93 1.93 70 1013.5
20260902214820 87 102 0.0 4.0 0.00 1.93 1.93 70 1013.6
20260902214625 87 106 1.0 4.0 0.00 1.93 1.93 70 1013.5
20260902214317 88 111 1.0 4.0 0.00 1.93 1.93 71 1013.5
20260902213821 88 99 1.0 4.0 0.00 1.93 1.93 69 1013.5
20260902213318 88 138 2.0 5.0 0.00 1.93 1.93 68 1013.6
20260902213029 87 114 1.0 5.0 0.00 1.93 1.93 69 1013.6
20260902212825 88 111 3.0 5.0 0.00 1.93 1.93 68 1013.7
20260902212325 88 32 2.0 5.0 0.00 1.93 1.93 70 1013.7
20260902211822 87 94 1.0 4.0 0.00 1.93 1.93 71 1013.8
20260902211547 87 48 0.0 4.0 0.00 1.93 1.93 71 1013.9
20260902211327 87 103 1.0 5.0 0.00 1.93 1.93 71 1013.8
20260902210830 87 115 0.0 5.0 0.00 1.93 1.93 71 1013.8
20260902210334 87 109 1.0 7.0 0.00 1.93 1.93 72 1013.6
20260902210005 87 74 3.0 7.0 0.00 1.93 1.93 70 1013.6
20260902205818 87 107 3.0 7.0 0.00 1.93 1.93 70 1013.5
20260902205323 87 31 1.0 5.0 0.00 1.93 1.93 73 1013.5
20260902204823 87 78 1.0 5.0 0.00 1.93 1.93 72 1013.5
20260902204506 87 43 1.0 5.0 0.00 1.93 1.93 72 1013.4
20260902204327 87 91 3.0 5.0 0.00 1.93 1.93 72 1013.5
20260902203812 87 74 3.0 5.0 0.00 1.93 1.93 72 1013.5
20260902203347 87 105 2.0 6.0 0.00 1.93 1.93 72 1013.7
20260902203105 87 125 2.0 6.0 0.00 1.93 1.93 72 1013.7
20260902202859 87 93 3.0 6.0 0.00 1.93 1.93 73 1013.8
20260902202313 87 97 3.0 5.0 0.00 1.93 1.93 73 1013.9
20260902201846 87 49 1.0 5.0 0.00 1.93 1.93 75 1014.0
20260902201514 86 122 2.0 5.0 0.00 1.93 1.93 75 1014.0
20260902201329 86 122 2.0 5.0 0.00 1.93 1.93 75 1013.9
20260902200814 86 91 2.0 4.0 0.00 1.93 1.93 74 1014.1
20260902200318 86 70 2.0 5.0 0.01 1.93 1.93 75 1014.1
20260902200015 86 82 1.0 5.0 0.01 1.93 1.93 75 1014.1
20260902195822 86 82 3.0 5.0 0.01 1.93 1.93 73 1014.2
20260902195326 87 68 2.0 5.0 0.01 1.93 1.93 73 1014.1
20260902194825 87 110 1.0 5.0 0.01 1.93 1.93 72 1014.2
20260902194548 86 102 1.0 5.0 0.01 1.93 1.93 71 1014.2
20260902194318 87 110 2.0 5.0 0.01 1.93 1.93 73 1014.0
20260902193824 87 108 2.0 5.0 0.01 1.93 1.93 75 1014.1
20260902193329 86 86 3.0 7.0 0.01 1.93 1.93 75 1014.2
20260902193028 85 89 2.0 7.0 0.01 1.93 1.93 77 1014.3
20260902192322 85 65 4.0 6.0 0.03 1.93 1.93 79 1014.3
20260902191828 84 82 2.0 5.0 0.07 1.93 1.93 82 1014.4
20260902191528 83 83 2.0 5.0 0.09 1.93 1.93 81 1014.4
20260902191330 84 65 3.0 5.0 0.10 1.93 1.93 82 1014.5
20260902190833 83 71 1.0 4.0 0.13 1.93 1.93 83 1014.5
20260902190317 82 62 1.0 5.0 0.13 1.92 1.92 81 1014.6
20260902190008 81 92 2.0 5.0 0.18 1.92 1.92 81 1014.6
20260902185821 82 89 2.0 5.0 0.26 1.92 1.92 82 1014.7
20260902185326 81 100 1.0 4.0 0.49 1.92 1.92 83 1015.0
20260902184828 81 96 1.0 5.0 0.80 1.92 1.92 82 1014.9
20260902184506 80 91 1.0 5.0 1.00 1.92 1.92 82 1014.8
20260902184331 81 77 2.0 5.0 1.10 1.92 1.92 82 1014.8
20260902183816 80 86 2.0 3.0 1.42 1.92 1.92 83 1014.7
20260902183321 80 69 1.0 4.0 1.75 1.92 1.92 84 1014.7
20260902183004 79 117 1.0 4.0 1.83 1.92 1.92 84 1014.7
20260902182839 80 134 1.0 4.0 1.89 1.92 1.92 84 1014.8
20260902182324 80 123 1.0 4.0 1.90 1.90 1.90 83 1014.7
20260902181848 80 87 3.0 5.0 1.86 1.86 1.86 83 1014.8
20260902181616 79 107 2.0 5.0 1.84 1.84 1.84 83 1014.9
20260902181354 80 110 1.0 5.0 1.83 1.83 1.83 85 1014.8
20260902180837 80 91 0.0 1.0 1.80 1.80 1.80 85 1014.8
20260902180321 79 226 0.0 1.0 1.79 1.79 1.79 83 1014.9
20260902180017 79 226 0.0 4.0 1.72 1.72 1.72 83 1015.1
20260902175821 79 226 0.0 5.0 1.65 1.65 1.65 83 1015.3
20260902175326 79 8 2.0 6.0 1.41 1.41 1.43 82 1015.6
20260902174825 80 171 2.0 9.0 1.07 1.07 1.07 80 1015.7
20260902174545 80 110 2.0 9.0 0.92 0.92 0.92 79 1015.6
20260902174322 81 35 1.0 5.0 0.82 0.82 0.82 80 1015.3
20260902173852 83 213 0.0 6.0 0.50 0.50 0.50 78 1015.6
20260902173316 84 117 2.0 6.0 0.15 0.15 0.15 76 1015.5
20260902173033 85 82 3.0 7.0 0.08 0.08 0.08 73 1015.5
20260902172819 85 117 3.0 7.0 0.02 0.02 0.02 73 1015.5
20260902172322 86 67 4.0 8.0 0.00 0.00 0.00 70 1015.4
20260902171825 87 104 4.0 8.0 0.00 0.00 0.00 70 1015.4